| time (UTC) | temp C | wind direction | speed KPH | gust KPH | rain 1hr cm | rain 24hr cm | rain mn cm | humidity % | barometer mb |
| 20260510134539 | 11 | 158 | 1.6 | 16.1 | 0.00 | 0.71 | 0.00 | 90 | 1011.5 |
| 20260510133045 | 11 | 105 | 1.6 | 12.9 | 0.00 | 0.71 | 0.00 | 91 | 1011.5 |
| 20260510131537 | 11 | 145 | 1.6 | 8.0 | 0.00 | 0.71 | 0.00 | 91 | 1011.1 |
| 20260510130037 | 10 | 98 | 1.6 | 16.1 | 0.00 | 0.71 | 0.00 | 94 | 1011.2 |
| 20260510124537 | 10 | 108 | 0.0 | 12.9 | 0.00 | 0.71 | 0.00 | 94 | 1011.1 |
| 20260510123035 | 10 | 70 | 1.6 | 11.3 | 0.00 | 0.71 | 0.00 | 95 | 1011.4 |
| 20260510121532 | 9 | 61 | 3.2 | 12.9 | 0.00 | 0.71 | 0.00 | 95 | 1011.3 |
| 20260510120036 | 9 | 135 | 0.0 | 8.0 | 0.00 | 0.71 | 0.00 | 96 | 1011.4 |
| 20260510114600 | 9 | 0 | 0.0 | 6.4 | 0.00 | 0.71 | 0.00 | 96 | 1011.0 |
| 20260510113050 | 9 | 0 | 0.0 | 14.5 | 0.00 | 0.71 | 0.00 | 96 | 1010.8 |
| 20260510111538 | 9 | 324 | 3.2 | 14.5 | 0.00 | 0.71 | 0.00 | 96 | 1010.8 |
| 20260510110038 | 9 | 92 | 0.0 | 11.3 | 0.00 | 0.71 | 0.00 | 97 | 1010.8 |
| 20260510104543 | 8 | 139 | 1.6 | 8.0 | 0.00 | 0.71 | 0.00 | 96 | 1010.3 |
| 20260510103038 | 8 | 0 | 0.0 | 0.0 | 0.00 | 0.71 | 0.00 | 96 | 1010.1 |
| 20260510101535 | 8 | 0 | 0.0 | 0.0 | 0.00 | 0.71 | 0.00 | 96 | 1009.9 |
| 20260510100050 | 8 | 0 | 0.0 | 0.0 | 0.00 | 0.71 | 0.00 | 96 | 1009.3 |
| 20260510094537 | 8 | 0 | 0.0 | 0.0 | 0.00 | 0.71 | 0.00 | 96 | 1009.2 |
| 20260510093035 | 8 | 0 | 0.0 | 6.4 | 0.00 | 0.71 | 0.00 | 96 | 1009.4 |
| 20260510091537 | 8 | 0 | 0.0 | 0.0 | 0.00 | 0.71 | 0.00 | 96 | 1009.2 |
| 20260510091459 | 8 | 110 | 0.0 | 0.0 | 0.00 | 0.69 | 0.00 | 96 | 1009.2 |
| 20260510090035 | 8 | 0 | 0.0 | 3.2 | 0.00 | 0.71 | 0.00 | 96 | 1009.1 |
| 20260510084536 | 8 | 133 | 0.0 | 3.2 | 0.00 | 0.71 | 0.00 | 96 | 1009.7 |
| 20260510083042 | 8 | 0 | 0.0 | 1.6 | 0.00 | 0.71 | 0.00 | 96 | 1009.8 |
| 20260510081536 | 8 | 0 | 0.0 | 1.6 | 0.00 | 0.71 | 0.00 | 96 | 1009.8 |
| 20260510080035 | 8 | 0 | 0.0 | 6.4 | 0.00 | 0.71 | 0.00 | 96 | 1009.9 |
| 20260510074542 | 8 | 0 | 0.0 | 4.8 | 0.00 | 0.71 | 0.00 | 96 | 1009.8 |
| 20260510073037 | 8 | 0 | 0.0 | 3.2 | 0.00 | 0.71 | 0.00 | 96 | 1009.8 |
| 20260510071536 | 7 | 0 | 0.0 | 3.2 | 0.00 | 0.71 | 0.00 | 96 | 1009.7 |
| 20260510070047 | 7 | 0 | 0.0 | 0.0 | 0.00 | 0.71 | 0.00 | 96 | 1009.7 |
| 20260510064534 | 7 | 0 | 0.0 | 0.0 | 0.00 | 0.71 | 0.00 | 96 | 1009.9 |
| 20260510063042 | 7 | 0 | 0.0 | 0.0 | 0.00 | 0.71 | 0.00 | 96 | 1009.8 |
| 20260510061538 | 7 | 0 | 0.0 | 0.0 | 0.00 | 0.71 | 0.00 | 96 | 1009.9 |
| 20260510060041 | 7 | 0 | 0.0 | 0.0 | 0.00 | 0.71 | 0.00 | 95 | 1010.0 |
| 20260510054542 | 7 | 0 | 0.0 | 0.0 | 0.00 | 0.71 | 0.00 | 96 | 1010.2 |
| 20260510053036 | 7 | 0 | 0.0 | 0.0 | 0.00 | 0.71 | 0.00 | 95 | 1010.3 |
| 20260510051537 | 7 | 0 | 0.0 | 4.8 | 0.00 | 0.71 | 0.00 | 95 | 1010.1 |
| 20260510050035 | 7 | 0 | 0.0 | 11.3 | 0.00 | 0.71 | 0.00 | 96 | 1010.5 |
| 20260510044537 | 7 | 190 | 0.0 | 6.4 | 0.00 | 0.71 | 0.00 | 95 | 1010.6 |
| 20260510043037 | 7 | 0 | 0.0 | 3.2 | 0.00 | 0.71 | 0.00 | 95 | 1010.4 |
| 20260510041546 | 6 | 0 | 0.0 | 1.6 | 0.00 | 0.71 | 0.00 | 95 | 1010.4 |
| 20260510040034 | 6 | 0 | 0.0 | 4.8 | 0.00 | 0.71 | 0.00 | 95 | 1010.5 |
| 20260510034535 | 6 | 0 | 0.0 | 6.4 | 0.00 | 0.71 | 0.71 | 95 | 1010.5 |
| 20260510033039 | 6 | 0 | 0.0 | 9.7 | 0.00 | 0.71 | 0.71 | 95 | 1010.4 |
| 20260510031538 | 7 | 225 | 1.6 | 8.0 | 0.00 | 0.71 | 0.71 | 95 | 1010.4 |
| 20260510030036 | 6 | 0 | 0.0 | 3.2 | 0.00 | 0.71 | 0.71 | 95 | 1010.7 |
| 20260510024534 | 6 | 0 | 0.0 | 4.8 | 0.00 | 0.71 | 0.71 | 95 | 1010.5 |
| 20260510023035 | 7 | 0 | 0.0 | 6.4 | 0.00 | 0.71 | 0.71 | 95 | 1010.8 |
| 20260510021539 | 6 | 0 | 0.0 | 3.2 | 0.00 | 0.71 | 0.71 | 95 | 1010.9 |
| 20260510020036 | 6 | 0 | 0.0 | 9.7 | 0.00 | 0.71 | 0.71 | 95 | 1010.8 |
| 20260510014536 | 6 | 0 | 0.0 | 8.0 | 0.00 | 0.71 | 0.71 | 95 | 1011.0 |
| 20260510013039 | 6 | 0 | 0.0 | 0.0 | 0.00 | 0.71 | 0.71 | 95 | 1010.8 |
| 20260510011535 | 6 | 92 | 0.0 | 6.4 | 0.00 | 0.71 | 0.71 | 95 | 1010.8 |
| 20260510010036 | 6 | 0 | 0.0 | 4.8 | 0.00 | 0.71 | 0.71 | 95 | 1010.9 |
| 20260510004536 | 6 | 0 | 0.0 | 11.3 | 0.00 | 0.71 | 0.71 | 95 | 1010.9 |
| 20260510003051 | 6 | 0 | 1.6 | 6.4 | 0.00 | 0.71 | 0.71 | 94 | 1010.7 |
| 20260510001541 | 7 | 0 | 0.0 | 0.0 | 0.00 | 0.71 | 0.71 | 94 | 1010.6 |
| 20260510000039 | 7 | 0 | 0.0 | 0.0 | 0.00 | 0.71 | 0.71 | 94 | 1010.2 |
| 20260509234545 | 7 | 171 | 0.0 | 3.2 | 0.00 | 0.71 | 0.71 | 94 | 1010.1 |
| 20260509233034 | 7 | 0 | 0.0 | 3.2 | 0.00 | 0.71 | 0.71 | 94 | 1010.0 |
| 20260509231536 | 7 | 0 | 0.0 | 6.4 | 0.00 | 0.71 | 0.71 | 94 | 1010.1 |
| 20260509230036 | 7 | 0 | 0.0 | 3.2 | 0.00 | 0.71 | 0.71 | 94 | 1010.2 |
| 20260509224536 | 7 | 0 | 0.0 | 1.6 | 0.00 | 0.71 | 0.71 | 94 | 1010.3 |
| 20260509223035 | 7 | 228 | 0.0 | 4.8 | 0.00 | 0.71 | 0.71 | 94 | 1010.3 |
| 20260509221536 | 7 | 311 | 0.0 | 1.6 | 0.00 | 0.71 | 0.71 | 94 | 1010.3 |
| 20260509220052 | 7 | 0 | 0.0 | 0.0 | 0.00 | 0.71 | 0.71 | 94 | 1010.6 |
| 20260509214935 | 7 | 108 | 0.0 | 0.0 | 0.00 | 0.05 | 0.69 | 94 | 1010.6 |
| 20260509214540 | 7 | 0 | 0.0 | 4.8 | 0.03 | 0.71 | 0.71 | 94 | 1010.7 |
| 20260509213041 | 7 | 0 | 0.0 | 1.6 | 0.03 | 0.71 | 0.71 | 94 | 1010.8 |
| 20260509211543 | 7 | 0 | 0.0 | 1.6 | 0.03 | 0.71 | 0.71 | 94 | 1010.8 |
| 20260509210036 | 7 | 278 | 0.0 | 4.8 | 0.00 | 0.69 | 0.69 | 93 | 1010.8 |
| 20260509204542 | 7 | 0 | 0.0 | 1.6 | 0.00 | 0.69 | 0.69 | 93 | 1010.7 |
| 20260509203037 | 7 | 0 | 0.0 | 3.2 | 0.00 | 0.69 | 0.69 | 93 | 1010.8 |
| 20260509201534 | 7 | 0 | 0.0 | 4.8 | 0.03 | 0.69 | 0.69 | 93 | 1010.9 |
| 20260509200041 | 7 | 121 | 1.6 | 9.7 | 0.08 | 0.69 | 0.69 | 93 | 1010.8 |
| 20260509194541 | 7 | 0 | 0.0 | 6.4 | 0.13 | 0.69 | 0.69 | 94 | 1010.9 |
| 20260509193041 | 7 | 227 | 1.6 | 8.0 | 0.18 | 0.69 | 0.69 | 93 | 1011.1 |
| 20260509191536 | 7 | 0 | 0.0 | 8.0 | 0.20 | 0.66 | 0.66 | 93 | 1011.2 |
| 20260509190039 | 7 | 0 | 0.0 | 4.8 | 0.15 | 0.58 | 0.58 | 93 | 1011.4 |
| 20260509184538 | 7 | 160 | 0.0 | 6.4 | 0.18 | 0.56 | 0.56 | 93 | 1011.6 |
| 20260509183035 | 7 | 0 | 0.0 | 4.8 | 0.18 | 0.51 | 0.51 | 93 | 1011.5 |
| 20260509181535 | 7 | 0 | 0.0 | 6.4 | 0.15 | 0.46 | 0.46 | 94 | 1011.5 |
| 20260509180035 | 7 | 128 | 0.0 | 4.8 | 0.15 | 0.41 | 0.41 | 94 | 1011.7 |
| 20260509174536 | 7 | 0 | 0.0 | 0.0 | 0.18 | 0.38 | 0.38 | 94 | 1011.9 |
| 20260509173038 | 6 | 0 | 0.0 | 0.0 | 0.18 | 0.33 | 0.33 | 93 | 1012.1 |
| 20260509171538 | 6 | 0 | 0.0 | 0.0 | 0.18 | 0.28 | 0.28 | 92 | 1012.3 |
| 20260509170038 | 6 | 0 | 0.0 | 0.0 | 0.20 | 0.25 | 0.25 | 92 | 1012.4 |
| 20260509164536 | 7 | 0 | 0.0 | 0.0 | 0.15 | 0.20 | 0.20 | 91 | 1012.5 |
| 20260509163034 | 7 | 0 | 0.0 | 0.0 | 0.13 | 0.15 | 0.15 | 90 | 1012.7 |
| 20260509161533 | 7 | 0 | 0.0 | 4.8 | 0.05 | 0.08 | 0.08 | 88 | 1012.7 |
| 20260509160035 | 8 | 0 | 0.0 | 3.2 | 0.03 | 0.05 | 0.05 | 87 | 1013.0 |
| 20260509154536 | 8 | 0 | 0.0 | 3.2 | 0.05 | 0.05 | 0.05 | 87 | 1012.9 |
| 20260509153036 | 8 | 0 | 0.0 | 3.2 | 0.03 | 0.03 | 0.03 | 86 | 1013.2 |
| 20260509152054 | 8 | 55 | 0.0 | 6.4 | 0.00 | 0.00 | 0.03 | 86 | 1013.2 |
| 20260509151535 | 8 | 0 | 0.0 | 3.2 | 0.03 | 0.03 | 0.03 | 86 | 1013.2 |
| 20260509150036 | 8 | 0 | 0.0 | 1.6 | 0.03 | 0.03 | 0.03 | 83 | 1013.1 |
| 20260509144544 | 8 | 0 | 0.0 | 0.0 | 0.00 | 0.00 | 0.00 | 80 | 1013.0 |
| 20260509143039 | 9 | 159 | 1.6 | 8.0 | 0.00 | 0.00 | 0.00 | 71 | 1012.9 |
| 20260509141539 | 9 | 0 | 1.6 | 4.8 | 0.00 | 0.00 | 0.00 | 64 | 1012.9 |
| 20260509140054 | 9 | 0 | 0.0 | 9.7 | 0.00 | 0.00 | 0.00 | 64 | 1012.7 |